Regional Weather Roundup
Issued by NWS

Home | Current Version | Previous Version | Text Only | Print | Product List | Glossary On
Versions: 1 2 3 4 5 6 7 8 9 10 11 12 13 14 15 16 17 18 19 20 21 22 23 24 25 26 27 28 29 30 31 32 33 34 35 36 37 38 39 40 41 42 43 44 45 46 47 48 49 50
000
ASUS45 KBOI 020410
RWRID
WEATHER ROUNDUP FOR IDAHO
NATIONAL WEATHER SERVICE BOISE ID
900 PM MST SUN MAR 01 2015

NOTE: "FAIR" INDICATES FEW OR NO CLOUDS BELOW 12000 FEET
WITH NO SIGNIFICANT WEATHER AND/OR OBSTRUCTIONS TO VISIBILITY

IDZ012-014-020500-
SOUTHWEST IDAHO


CITY           SKY/WX    TMP DP  RH WIND       PRES   REMARKS
BOISE          CLEAR     36  21  54 SE6       30.01F WCI  31
CALDWELL       CLEAR     36  16  44 CALM      30.03S
MOUNTAIN HOME  CLEAR     33  19  57 N5        30.01F WCI  28
$$

IDZ016-017-020500-
SOUTHCENTRAL IDAHO


CITY           SKY/WX    TMP DP  RH WIND       PRES   REMARKS
BURLEY         CLEAR     28  12  51 CALM      29.99F
JEROME         CLEAR     32   3  29 E9        30.00F WCI  24
TWIN FALLS     CLEAR     26  11  52 SE8       29.99F WCI  18
$$

IDZ019>023-020500-
SOUTHEAST IDAHO


CITY           SKY/WX    TMP DP  RH WIND       PRES   REMARKS
IDAHO FALLS    CLEAR     24   4  42 CALM      30.02S
POCATELLO      CLEAR     27   9  46 E3        30.02S
REXBURG        CLEAR     23   2  40 N3        30.01S
$$

IDZ006-010-011-018-031-032-020500-
CENTRAL IDAHO MOUNTAINS


CITY           SKY/WX    TMP DP  RH WIND       PRES   REMARKS
MCCALL         CLEAR     25  16  68 CALM      29.94F
HAILEY         PTCLDY    28  18  64 CALM      30.01R
STANLEY          N/A     18   8  65 SE3       29.95S
SALMON         CLEAR     25  12  58 CALM      29.97S
CHALLIS        CLEAR     28  10  46 SE6       29.95F WCI  22
$$

IDZ002-004-006-007-026-020500-
NORTHERN IDAHO


CITY           SKY/WX    TMP DP  RH WIND       PRES   REMARKS
LEWISTON       MOCLDY    37  21  52 S6        29.99F WCI  32
LOWELL           N/A     31  22  69 CALM      30.03S
COEUR D`ALENE  MOCLDY    34  19  55 CALM      29.96F
MULLAN PASS    CLOUDY    23   3  42 S5        29.87F WCI  17
$$


USA.gov is the U.S. government's official web portal to all federal, state and local government web resources and services.